Date,TemperatureHighF,TemperatureAvgF,TemperatureLowF,DewpointHighF,DewpointAvgF,DewpointLowF,HumidityHigh,HumidityAvg,HumidityLow,PressureMaxIn,PressureMinIn,WindSpeedMaxMPH,WindSpeedAvgMPH,GustSpeedMaxMPH,PrecipitationSumIn
2013-5-19,54.4,53.8,53.6,54.4,53.8,53.6,100,100,100,30.21,30.17,5,0,5,0.58
2013-5-20,75.5,63.5,53.8,68.7,61.4,53.8,100,93,76,30.17,29.96,3,0,3,0.01
2013-5-21,83.2,72.5,63.4,72.9,68.0,62.8,100,87,68,29.97,29.80,3,0,3,0.00
2013-5-22,75.1,67.4,58.7,70.1,65.3,57.8,99,93,84,29.89,29.80,4,0,4,0.00
2013-5-23,69.2,66.9,62.7,67.9,66.2,62.7,100,98,95,29.84,29.72,6,0,6,1.37
2013-5-24,62.9,51.4,40.3,62.9,51.4,40.3,100,100,100,29.93,29.64,12,0,12,0.43
2013-5-25,44.7,42.1,39.9,43.7,40.6,37.9,100,95,81,29.96,29.87,20,1,20,0.08
2013-5-26,57.2,49.0,41.2,43.6,39.9,36.4,90,72,53,30.18,29.90,18,1,18,0.00
2013-5-27,69.8,57.2,43.8,47.9,41.7,36.9,84,58,37,30.23,30.11,3,0,3,0.00
2013-5-28,64.1,56.8,53.9,54.3,47.1,35.1,100,73,44,30.20,30.12,5,0,5,0.31
2013-5-29,74.0,63.8,54.2,71.3,62.6,54.2,100,96,88,30.12,29.99,3,0,3,0.02
2013-5-30,85.2,74.4,65.5,72.8,67.5,63.3,95,80,60,30.11,30.03,2,0,2,0.00
2013-5-31,87.9,77.0,69.8,72.8,66.7,61.3,85,71,55,30.10,29.96,3,0,3,0.00
2013-6-1,85.5,75.4,66.7,73.5,68.4,62.7,91,79,63,29.99,29.87,4,0,4,0.00
2013-6-2,82.0,74.5,68.6,72.6,69.2,66.6,95,84,71,29.88,29.72,4,0,4,0.00
2013-6-3,71.3,65.8,55.6,67.4,62.7,49.8,100,90,71,29.89,29.76,3,0,3,1.96
2013-6-4,69.6,58.7,48.4,52.1,46.1,38.3,88,65,42,30.11,29.89,4,0,4,0.00
2013-6-5,69.2,59.9,50.8,54.7,47.9,38.8,74,65,52,30.20,30.10,3,0,3,0.00
2013-6-6,64.3,57.3,52.4,56.7,52.6,47.0,99,85,68,30.14,30.02,7,0,7,0.49
2013-6-7,57.5,55.6,52.5,57.5,55.5,52.2,100,100,99,30.02,29.69,13,0,13,2.10
2013-6-8,68.4,59.5,52.1,67.6,58.3,52.1,100,96,84,30.05,29.63,9,0,9,12.70
2013-6-9,72.8,64.9,57.1,63.4,58.7,55.3,96,81,65,30.17,30.05,3,0,3,0.00
2013-6-10,66.6,62.1,57.1,63.2,58.8,56.1,100,90,70,30.16,29.83,10,0,10,29.98
2013-6-11,70.3,63.0,57.2,70.2,62.0,56.5,100,97,84,29.83,29.59,11,0,11,0.00
2013-6-12,67.8,61.9,56.4,58.7,55.0,51.4,90,78,66,29.85,29.65,9,0,10,0.00
2013-6-13,62.5,56.3,50.3,56.0,54.0,50.3,100,93,71,29.83,29.53,11,0,11,7.63
2013-6-14,67.8,56.2,48.5,61.5,54.0,48.5,100,93,72,29.88,29.57,6,0,6,0.00
2013-6-15,73.0,64.6,54.8,59.3,54.4,48.4,94,71,52,30.00,29.88,3,0,3,8.18
2013-6-16,71.2,65.3,57.4,64.6,57.7,48.4,89,77,56,29.97,29.74,5,0,5,0.00
2013-6-17,80.2,69.7,60.9,68.7,62.6,57.6,97,79,53,29.90,29.81,5,0,5,0.00
2013-6-18,76.7,65.6,55.5,69.4,61.9,55.2,100,88,71,29.90,29.81,4,0,4,0.06
2013-6-19,68.3,59.7,50.8,55.5,52.3,46.6,100,79,56,30.17,29.89,4,0,4,0.00
2013-6-20,74.2,63.9,55.5,60.9,53.5,44.7,86,70,56,30.25,30.16,3,0,3,0.00
2013-6-21,67.2,67.1,67.1,64.3,64.3,64.2,91,91,91,29.89,29.88,0,0,0,0.00
2013-6-22,67.1,67.0,66.9,64.3,64.3,64.3,92,91,91,29.89,29.89,0,0,0,0.00
2013-6-23,66.9,66.9,66.8,64.4,64.4,64.3,92,92,92,29.90,29.89,0,0,0,0.00
2013-6-24,66.8,66.7,66.7,64.5,64.4,64.4,93,93,92,29.90,29.90,0,0,0,0.00
2013-6-25,82.7,73.1,66.6,76.6,69.7,64.5,94,89,77,29.93,29.78,4,0,4,0.00
2013-6-26,74.7,70.7,66.9,71.6,68.6,66.4,99,93,86,29.82,29.75,4,0,4,0.07
2013-6-27,77.0,70.7,66.3,72.9,68.9,65.4,100,94,83,29.81,29.50,9,0,9,0.64
2013-6-28,77.8,71.8,67.4,72.8,69.3,67.4,100,92,81,29.51,29.45,10,0,10,0.11
2013-6-29,72.8,72.6,72.4,68.7,68.6,68.3,88,87,87,29.47,29.46,0,0,0,0.00
2013-6-30,72.8,72.6,72.4,68.7,68.6,68.3,88,87,87,29.47,29.46,0,0,2,0.00
2013-7-1,72.8,72.6,72.4,68.7,68.6,68.3,88,87,87,29.47,29.46,0,0,0,0.00
2013-7-2,76.0,75.6,75.2,73.8,73.2,72.6,93,92,92,30.05,29.91,0,0,0,0.00
2013-7-3,76.7,76.4,76.0,74.8,74.3,73.9,94,93,93,30.16,30.05,0,0,0,0.00
2013-7-4,76.3,76.1,75.9,74.1,73.9,73.7,93,93,93,30.17,30.16,0,0,0,0.00
2013-7-5,85.3,78.6,74.5,77.5,74.2,71.5,93,87,74,30.17,30.06,4,0,4,0.00
2013-7-6,84.8,77.5,71.4,76.6,73.4,70.7,98,88,70,30.10,30.00,2,0,2,0.00
2013-7-7,86.5,78.1,72.3,79.0,74.2,66.4,98,88,74,30.04,29.90,3,0,3,0.86
2013-7-8,82.2,74.1,67.6,74.8,69.6,65.5,97,86,74,30.02,29.93,3,0,3,0.00
2013-7-9,80.7,72.5,66.6,74.6,70.2,65.7,98,92,76,30.05,29.98,3,0,3,0.00
2013-7-10,78.0,73.3,69.5,77.8,72.0,67.9,100,96,91,30.00,29.78,4,0,4,0.13
2013-7-11,77.8,71.8,67.8,72.9,68.6,63.1,99,90,79,29.93,29.77,0,0,0,0.00
2013-7-12,73.4,67.7,61.4,69.1,64.2,59.9,96,89,79,30.12,29.92,0,0,0,0.04
2013-7-13,74.3,67.5,61.3,72.7,67.2,60.5,100,99,93,30.29,30.11,0,0,0,0.05
2013-7-14,83.1,75.6,70.7,77.4,73.5,70.7,100,93,79,30.32,30.22,0,0,0,0.00
2013-7-15,85.5,78.2,71.8,77.7,73.0,69.5,94,84,74,30.23,30.13,0,0,0,0.00
2013-7-16,84.8,77.6,69.8,73.9,69.6,66.4,90,77,62,30.20,30.13,0,0,0,0.00
2013-7-17,86.3,79.0,72.9,76.7,72.2,68.6,90,80,64,30.19,30.03,0,0,0,0.00
2013-7-18,88.8,80.8,74.7,78.9,74.5,70.1,92,82,64,30.05,29.93,0,0,0,0.00
2013-7-19,89.2,81.2,73.7,80.6,75.4,71.4,94,83,70,29.94,29.75,3,0,3,0.00
2013-7-20,86.3,77.5,73.0,78.2,72.7,67.8,99,86,68,29.83,29.70,5,0,5,0.10
2013-7-21,79.4,73.0,66.7,70.2,65.0,58.7,89,77,54,29.95,29.82,3,0,3,0.00
2013-7-22,76.5,71.6,67.5,72.9,69.2,61.2,100,92,73,29.95,29.79,5,0,5,0.32
2013-7-23,79.1,72.2,68.7,75.8,71.4,67.8,100,97,83,29.79,29.54,6,0,6,0.69
2013-7-24,73.1,67.8,57.3,69.5,64.8,52.3,100,91,79,29.95,29.59,4,0,5,0.00
2013-7-25,64.0,58.4,53.0,61.0,55.2,49.5,95,89,84,30.07,29.95,6,0,6,0.00
2013-7-26,74.0,65.0,57.3,67.4,61.4,56.7,99,89,73,30.05,29.99,3,0,3,0.02
2013-7-27,76.9,68.7,60.9,67.5,63.2,58.4,93,83,68,30.04,29.94,5,0,5,0.00
2013-7-28,70.2,66.5,63.9,68.7,65.5,62.1,100,97,89,29.97,29.88,7,0,7,0.25
2013-7-29,76.3,69.1,64.0,70.0,64.8,56.6,100,87,65,30.09,29.94,2,0,3,0.01
2013-7-30,73.2,65.7,59.7,64.1,59.5,56.0,90,81,67,30.15,30.08,3,0,3,0.00
2013-7-31,75.4,67.4,60.3,65.2,60.9,56.5,89,80,58,30.15,30.03,2,0,2,0.00
2013-8-1,69.8,64.5,62.5,65.7,63.3,61.6,100,96,84,30.03,29.83,7,0,9,0.39
2013-8-2,74.8,66.7,61.6,68.4,64.4,59.8,100,93,75,29.90,29.79,2,0,2,0.03
2013-8-3,73.9,65.6,61.1,68.7,63.2,57.4,98,92,81,29.89,29.82,3,0,3,0.01
2013-8-4,72.8,64.0,59.0,62.7,57.6,51.5,98,80,64,29.96,29.84,4,0,4,0.05
2013-8-5,71.5,62.9,55.2,56.7,52.1,48.1,87,69,52,30.05,29.95,4,0,4,0.00
2013-8-6,74.9,65.9,58.9,61.1,55.7,48.1,88,70,54,30.11,30.04,4,0,4,0.00
2013-8-7,70.5,65.2,60.1,66.0,62.2,58.2,99,90,80,30.14,30.04,7,0,7,0.00
2013-8-8,76.9,69.9,66.1,72.6,68.9,66.0,100,97,85,30.05,29.99,4,0,4,0.00
2013-8-9,75.0,70.6,68.8,75.0,70.6,68.8,100,100,100,30.00,29.78,6,0,6,1.51
2013-8-10,75.7,67.9,62.5,69.0,62.4,53.5,100,84,62,30.04,29.84,2,0,2,0.11
2013-8-11,73.6,64.4,56.4,65.5,57.7,50.7,93,79,61,30.11,30.01,2,0,2,0.06
2013-8-12,75.6,68.2,61.9,65.7,62.3,58.8,97,82,63,30.03,29.91,2,0,2,0.06
2013-8-13,70.0,67.1,63.3,69.4,66.3,62.4,100,97,90,29.92,29.68,4,0,4,0.07
2013-8-14,67.5,60.7,53.2,62.7,54.4,48.4,98,80,67,30.02,29.74,4,0,4,0.04
2013-8-15,70.0,61.2,53.0,58.8,53.6,49.6,92,77,61,30.14,30.03,2,0,2,0.03
2013-8-16,73.1,64.7,57.6,61.4,55.5,50.4,82,72,53,30.19,30.11,2,0,2,0.03
2013-8-17,73.0,64.1,57.3,63.8,57.9,53.6,97,81,64,30.28,30.19,2,0,2,0.01
2013-8-18,71.8,70.7,69.6,62.6,62.0,61.3,80,75,70,30.22,30.17,0,0,0,0.00
2013-8-19,69.6,68.5,67.4,63.9,63.3,62.6,89,84,80,30.17,30.12,0,0,0,0.00
2013-8-20,78.6,71.0,66.5,69.0,65.0,62.4,93,82,65,30.12,30.07,2,0,2,0.02
2013-8-21,81.0,72.8,66.3,68.8,64.5,60.2,84,76,61,30.17,30.03,2,0,2,0.01
2013-8-22,74.6,69.8,65.8,71.4,68.0,63.8,100,94,83,30.05,29.85,4,0,4,0.01
2013-8-23,72.6,66.8,60.5,67.8,60.6,51.9,97,81,66,30.12,29.86,5,0,5,0.01
2013-8-24,71.2,62.7,53.7,59.0,54.1,49.6,89,74,58,30.35,30.12,3,0,3,0.00
2013-8-25,76.7,67.1,60.2,60.6,56.4,51.0,81,69,52,30.38,30.20,2,0,2,0.00
2013-8-26,72.1,66.5,63.4,69.3,62.9,57.1,98,88,75,30.21,29.94,2,0,2,0.01
2013-8-27,67.8,67.6,67.5,67.2,67.0,66.9,98,98,98,29.95,29.94,0,0,0,0.00
2013-8-28,67.8,67.6,67.5,67.2,67.0,66.9,98,98,98,29.95,29.94,0,0,0,0.00
2013-8-29,69.3,67.4,64.5,67.2,66.7,64.2,99,98,93,30.01,29.94,2,0,2,0.04
2013-8-30,77.3,69.2,63.5,71.9,67.4,63.2,100,94,79,30.02,29.84,2,0,2,0.03
2013-8-31,76.4,72.4,68.5,74.3,71.2,68.2,100,96,92,29.84,29.77,3,0,3,0.02
2013-9-1,76.0,72.7,70.6,74.4,72.0,70.4,100,97,91,29.84,29.78,4,0,4,0.02
2013-9-2,74.9,70.3,65.6,73.7,70.0,64.3,100,99,92,29.80,29.69,3,0,3,22.62
2013-9-3,70.1,64.8,60.5,67.1,62.8,56.6,100,94,75,29.87,29.70,3,0,3,29.90
2013-9-4,73.3,63.9,56.9,64.3,59.0,55.5,97,85,65,29.98,29.85,2,0,2,0.00
2013-9-5,66.7,61.1,51.8,61.2,54.5,45.4,95,80,57,30.15,29.91,3,0,3,0.00
2013-9-6,61.4,53.9,46.6,49.1,45.1,40.4,89,73,50,30.26,30.13,4,0,4,0.00
2013-9-7,70.5,60.0,50.1,60.5,52.3,44.6,89,76,62,30.13,29.89,1,0,1,0.00
2013-9-8,71.6,63.1,52.8,64.6,55.2,45.1,89,76,52,30.09,29.81,9,0,9,0.00
2013-9-9,64.9,56.8,47.5,57.0,49.7,41.9,91,78,63,30.24,30.08,5,0,5,0.00
2013-9-10,75.3,67.5,59.6,73.3,66.4,57.0,100,96,91,30.18,30.05,4,0,4,0.00
2013-9-11,87.2,77.4,71.3,80.5,74.0,67.1,99,89,76,30.10,29.95,4,0,4,0.00
2013-9-12,77.6,71.1,65.3,74.9,69.9,65.3,100,96,87,29.96,29.66,5,0,5,0.63
2013-9-13,66.7,61.2,52.6,65.3,60.3,50.2,100,97,84,29.83,29.61,6,0,6,0.10
2013-9-14,57.9,52.2,46.4,54.2,49.0,45.2,97,89,77,30.12,29.83,2,0,4,0.00
2013-9-15,62.9,53.4,45.1,55.2,48.5,43.2,93,84,62,30.21,30.09,1,0,1,0.00
2013-9-16,63.8,56.2,46.0,56.5,52.9,42.5,96,89,74,30.26,30.03,4,0,4,0.00
2013-9-17,57.1,48.1,39.1,48.0,42.8,37.8,96,82,66,30.44,30.26,5,0,5,0.00
2013-9-18,62.3,53.2,46.7,52.9,46.4,41.3,89,78,65,30.36,30.18,1,0,1,0.00
2013-9-19,68.8,59.0,51.2,58.2,51.9,46.8,89,78,51,30.19,30.07,2,0,2,0.00
2013-9-20,72.1,62.5,56.6,61.9,56.1,51.3,96,80,59,30.08,29.98,4,0,4,0.00
2013-9-21,68.5,61.8,56.2,64.9,60.4,55.4,100,95,86,29.99,29.63,6,0,6,0.41
2013-9-22,64.7,55.6,47.6,64.7,52.4,43.3,100,89,76,29.90,29.63,3,0,3,0.42
2013-9-23,57.4,49.3,42.7,48.0,43.4,39.6,92,81,65,30.06,29.90,9,0,9,0.00
2013-9-24,64.2,51.5,40.8,52.7,45.1,39.2,100,80,59,30.06,29.89,4,0,4,0.00
2013-9-25,63.1,54.3,45.7,54.0,48.1,42.9,92,80,66,29.97,29.90,2,0,2,0.00
2013-9-26,62.1,55.1,51.2,55.8,51.6,48.7,98,88,76,30.12,29.96,3,0,3,0.00
2013-9-27,59.0,53.1,46.9,55.1,50.8,46.4,98,92,83,30.28,30.11,2,0,2,0.00
2013-9-28,65.4,56.4,48.6,57.7,52.7,48.1,99,88,72,30.35,30.25,2,0,2,0.00
2013-9-29,65.6,57.8,53.0,57.6,53.0,46.4,92,84,70,30.25,30.08,3,0,3,0.00
2013-9-30,55.9,53.7,52.4,53.2,49.9,46.8,92,87,79,30.09,30.05,1,0,1,0.00
2013-10-1,57.1,56.8,56.4,50.8,50.5,50.2,82,80,78,30.07,30.07,0,0,0,0.00
2013-10-2,57.9,57.5,57.1,50.2,49.9,49.7,78,76,74,30.07,30.07,0,0,0,0.00
2013-10-3,71.7,63.1,57.3,60.6,54.3,49.3,83,73,56,30.11,30.02,2,0,2,0.00
2013-10-4,76.3,66.9,61.6,69.1,63.3,57.8,97,89,75,30.05,29.97,3,0,3,0.00
2013-10-5,69.0,63.1,58.5,65.9,62.0,58.2,100,97,87,30.08,30.01,2,0,2,0.31
2013-10-6,62.7,60.2,57.9,62.7,60.2,57.9,100,100,99,30.09,30.03,11,0,11,0.77
2013-10-7,67.4,64.5,60.7,67.4,64.5,60.7,100,100,100,30.03,29.73,10,0,10,0.28
2013-10-8,63.3,57.3,49.7,60.6,51.6,44.0,91,82,73,30.35,29.90,1,0,1,0.00
2013-10-9,57.7,51.1,44.2,47.5,44.0,39.0,88,77,59,30.44,30.33,3,0,3,0.00
2013-10-10,52.4,48.5,44.6,49.0,45.6,41.5,93,90,86,30.33,30.14,2,0,2,0.20
2013-10-11,63.4,56.3,49.2,59.8,52.5,46.4,92,87,70,30.13,30.06,2,0,3,0.00
2013-10-12,66.8,56.9,48.7,56.4,50.4,44.6,91,79,61,30.31,30.11,5,0,5,0.00
2013-10-13,60.7,53.3,47.4,51.6,49.2,46.6,98,86,69,30.40,30.30,4,0,4,0.00
2013-10-14,63.6,53.2,45.2,53.2,48.6,43.6,96,85,65,30.37,30.24,1,0,2,0.00
2013-10-15,66.5,57.6,51.3,58.1,51.4,38.0,97,81,50,30.27,30.12,7,0,7,0.00
2013-10-16,60.7,55.1,50.1,56.8,51.9,43.8,98,89,77,30.12,29.91,4,0,4,0.00
2013-10-17,70.6,61.7,56.5,60.3,58.4,55.9,100,90,64,29.90,29.64,4,0,4,0.00
2013-10-18,62.4,56.1,49.9,60.7,48.2,40.9,100,76,54,29.96,29.63,7,0,7,0.02
2013-10-19,60.7,52.4,45.9,50.2,44.4,40.1,98,75,53,29.97,29.72,7,0,7,0.06
2013-10-20,56.6,49.2,43.6,50.1,41.5,37.4,98,76,53,30.05,29.73,12,0,12,0.00
2013-10-21,62.8,51.8,44.2,45.2,40.8,37.8,84,67,48,30.14,29.96,9,0,9,0.00
2013-10-22,57.3,50.4,42.9,51.3,46.0,38.9,95,85,75,29.96,29.74,7,0,7,0.00
2013-10-23,48.7,42.8,39.3,39.0,36.1,32.7,88,77,61,29.81,29.62,8,0,8,0.00
2013-10-24,48.7,40.4,34.4,36.6,32.1,28.7,92,73,52,29.97,29.74,10,0,10,0.00
2013-10-25,46.8,40.3,34.5,35.1,31.9,28.8,92,72,58,30.21,29.97,14,0,14,0.00
2013-10-26,51.7,42.6,34.8,34.4,32.3,29.7,89,68,46,30.21,29.88,11,0,11,0.00
2013-10-27,52.9,45.4,40.3,36.1,33.6,31.6,76,63,50,30.10,29.83,10,0,10,0.00
2013-10-28,57.4,45.2,36.7,38.5,34.5,30.2,81,67,47,30.33,30.10,10,0,10,0.00
2013-10-29,45.2,39.0,33.7,31.6,29.4,27.2,79,69,57,30.43,30.33,4,0,4,0.00
2013-10-30,51.1,44.9,38.5,47.1,39.6,29.1,97,82,67,30.36,30.19,3,0,3,0.00
2013-10-31,57.5,52.2,45.5,57.5,52.0,45.0,100,99,97,30.24,29.77,15,1,15,0.18
2013-11-1,64.3,59.6,55.2,62.1,55.6,44.8,100,87,68,29.77,29.50,22,2,22,0.13
2013-11-2,63.9,53.0,44.6,51.7,45.0,41.0,91,75,55,29.77,29.60,11,0,11,0.01
2013-11-3,45.1,36.5,28.1,42.6,30.9,18.5,93,80,64,30.46,29.77,13,2,13,0.00
2013-11-4,38.4,31.4,23.6,22.4,20.2,18.5,81,64,48,30.69,30.46,10,1,10,0.00
2013-11-5,50.2,40.9,32.4,40.1,33.3,19.4,91,75,55,30.69,30.49,11,1,11,0.00
2013-11-6,54.2,48.0,41.1,48.2,44.4,39.0,96,87,74,30.50,30.05,15,1,15,0.00
2013-11-7,55.9,48.4,36.0,54.7,45.9,29.0,99,91,71,30.05,29.73,16,2,16,0.08
2013-11-8,43.2,36.9,33.7,33.0,29.7,26.3,89,75,60,30.17,29.88,21,3,21,0.00
2013-11-9,45.0,38.3,33.3,32.7,29.2,27.2,83,70,53,30.26,29.99,12,1,12,0.00
2013-11-10,54.4,42.8,39.2,40.6,34.9,30.2,85,74,56,30.02,29.80,20,2,20,0.00
2013-11-11,48.9,42.1,35.6,34.0,31.0,27.8,73,65,51,30.17,29.94,14,2,18,0.00
2013-11-12,45.1,30.8,23.9,36.8,24.9,17.5,96,79,64,30.27,29.93,16,2,16,0.01
2013-11-13,32.5,26.2,20.0,21.1,17.3,13.7,83,69,51,30.38,30.25,9,2,14,0.01
2013-11-14,48.4,36.8,27.1,28.4,22.5,19.6,78,57,42,30.25,30.14,12,1,12,0.02
2013-11-15,56.1,45.4,39.5,30.1,24.5,19.8,51,44,33,30.23,30.15,10,1,10,0.00
2013-11-16,58.7,48.0,42.2,44.4,37.5,24.4,98,69,46,30.32,30.22,6,0,10,0.00
2013-11-17,56.2,51.5,44.9,56.2,51.5,44.4,100,100,98,30.27,29.75,18,2,18,0.05
2013-11-18,60.2,52.5,41.8,57.7,44.0,29.4,100,75,52,29.75,29.54,20,3,20,0.26
2013-11-19,44.9,36.0,26.7,31.7,26.6,21.0,79,69,57,30.35,29.74,23,4,23,0.00
2013-11-20,33.9,28.2,22.4,21.1,18.5,16.9,81,67,53,30.64,30.35,13,2,13,0.00
2013-11-21,45.0,36.8,27.2,39.7,27.4,15.6,90,69,54,30.64,30.39,10,1,10,0.00
2013-11-22,48.4,45.2,42.1,47.6,44.3,39.7,99,97,90,30.39,29.89,11,1,11,0.00
2013-11-23,47.2,34.5,21.9,45.0,26.7,13.5,92,73,56,30.02,29.87,21,3,21,0.00
2013-11-24,23.6,19.3,16.3,14.2,7.5,2.0,73,60,40,30.34,29.94,28,7,28,0.00
2013-11-25,30.8,22.8,14.6,17.2,13.7,8.1,85,69,54,30.47,30.31,14,2,14,0.00
2013-11-26,39.2,30.3,26.7,38.9,24.5,15.1,99,80,60,30.34,29.85,20,2,20,0.00
2013-11-27,56.5,40.9,27.1,56.5,40.7,23.7,100,99,87,29.85,29.33,26,5,26,0.00
2013-11-28,27.8,24.1,21.3,23.7,17.1,12.8,88,74,62,30.47,29.66,21,4,21,0.00
2013-11-29,29.0,24.9,20.2,22.7,18.8,12.6,85,77,71,30.74,30.47,9,1,9,0.00
2013-11-30,30.9,23.3,14.8,27.8,16.4,11.1,88,75,54,30.77,30.41,9,2,9,0.00
2013-12-1,40.7,35.4,29.7,34.1,30.9,26.7,96,84,74,30.41,30.02,5,0,5,0.00
2013-12-2,41.3,36.5,33.8,35.3,32.1,28.9,91,84,75,30.02,29.90,5,0,5,0.00
2013-12-3,42.3,35.1,31.7,36.9,33.2,30.1,100,93,81,30.01,29.89,6,1,6,0.00
2013-12-4,44.3,37.8,31.1,41.8,33.3,28.3,94,84,71,30.16,30.01,9,1,9,0.00
2013-12-5,52.2,48.5,43.4,52.2,48.3,41.8,100,99,94,30.15,29.93,12,2,12,0.04
2013-12-6,53.7,39.8,30.0,53.7,39.8,30.0,100,100,99,30.14,29.87,17,2,17,0.19
2013-12-7,31.5,28.6,22.7,31.3,27.4,18.9,100,95,85,30.52,30.08,9,0,9,0.00
2013-12-8,24.9,22.9,19.2,22.9,19.9,15.8,95,88,84,30.61,30.43,7,0,7,0.00
2013-12-9,32.6,29.3,23.8,32.3,28.9,22.8,99,98,96,30.43,29.97,13,2,13,0.00
2013-12-10,30.8,27.4,21.1,30.6,26.1,16.4,99,95,82,30.07,29.85,11,1,11,0.00
2013-12-11,25.9,21.8,18.4,21.6,17.4,14.4,90,83,80,30.29,30.08,12,1,12,0.00
2013-12-12,22.7,17.0,14.0,16.0,10.7,7.3,84,76,65,30.34,30.13,13,2,13,0.00
2013-12-13,28.0,20.9,14.0,20.3,14.4,7.6,86,76,70,30.35,30.08,14,2,14,0.00
2013-12-14,20.0,15.1,12.2,18.7,12.9,10.3,95,91,79,30.52,29.92,18,3,18,0.00
2013-12-15,30.2,24.5,19.3,30.2,23.3,18.1,100,95,89,29.92,29.57,18,3,18,0.00
2013-12-16,25.0,19.6,15.2,22.5,13.0,7.7,90,75,66,30.22,29.79,18,3,18,0.00
2013-12-17,17.7,15.3,12.7,16.3,12.6,6.9,94,89,73,30.23,29.97,12,2,12,0.00
2013-12-18,28.5,21.5,13.8,25.4,18.6,12.2,95,89,80,30.16,29.95,15,2,15,0.00
2013-12-19,40.3,32.2,23.7,32.3,25.3,19.0,85,76,67,30.17,30.02,15,1,15,0.00
2013-12-20,47.2,41.6,36.6,35.5,32.9,29.4,79,71,61,30.11,29.95,13,2,13,0.35
2013-12-21,52.7,48.2,41.8,51.6,43.3,35.3,96,83,70,29.98,29.88,12,2,12,0.01
2013-12-22,62.2,58.4,52.7,61.6,57.0,51.6,100,95,89,29.94,29.75,21,4,21,0.00
2013-12-23,56.2,46.0,31.8,55.1,45.7,31.5,100,99,95,30.12,29.91,12,1,12,0.72
2013-12-24,31.7,27.5,21.0,31.5,24.9,19.0,99,90,76,30.27,30.09,14,2,14,0.00
2013-12-25,20.2,17.4,13.1,16.7,11.1,7.6,89,76,65,30.53,30.32,10,2,10,0.00
2013-12-26,29.4,24.6,19.2,26.1,21.1,13.6,91,86,77,30.45,30.16,13,1,13,0.00
2013-12-27,32.5,27.8,23.3,25.2,22.3,18.6,89,80,68,30.34,30.25,15,2,15,0.02
2013-12-28,44.4,36.5,28.1,32.9,28.3,23.9,86,72,61,30.27,30.06,11,1,11,0.01
2013-12-29,42.8,38.4,34.4,36.4,32.9,29.7,99,82,61,30.06,29.48,15,2,15,0.74
2013-12-30,36.3,28.3,12.4,35.7,24.1,8.2,99,85,67,30.18,29.66,17,3,17,0.00
2013-12-31,25.7,17.6,10.8,22.5,12.7,7.2,98,81,68,30.26,30.05,17,2,17,0.00
2014-1-1,27.5,20.6,14.8,20.7,14.8,9.1,94,78,66,30.41,30.25,12,1,12,0.00
2014-1-2,19.6,11.2,1.2,18.3,9.3,-1.6,100,92,88,30.29,29.75,14,3,14,0.00